Weather in Mahajanga

Madagascar     15°42′33″S   46°19′12″E
temp.,
°C
wind,
m/s
gust,
m/s
humid.,
%
clouds,
%
prec.,
mm/h
press.,
hPa
HPBL,
m
22 april, thu
thu2200:00+26se467397 0.0 1013279
03:00+26se4772100 0.0 1012376
06:00+25sse577630 0.0 1013319
09:00+28se67635 0.0 1014637
12:00+31ese345592 0.0 1013857
15:00+32ese3454100 0.0 1011839
18:00+30e236383 0.0 101250
21:00+27e4869100 0.2 1014244
23 april, fri
fri2300:00+26ese347497 0.2 1014172
03:00+26se4676100 0.2 1013293
06:00+25ese477598 0.0 1013328
09:00+27ese5765100 0.0 1014598
12:00+30ese575689 0.0 10121151
15:00+32ene355472 0.0 10101050
18:00+28e586872 0.4 1012355
21:00+27ene6107366 1.1 1014558
24 april, sat
sat2400:00+24ese4682100 0.9 1014264
03:00+24se4782100 0.9 1013305
06:00+24se4781100 0.0 1013287
09:00+26se586899 0.0 1014577
12:00+30se5757100 0.0 10121030
15:00+31se4654100 0.0 1010852
18:00+29ese366422 0.0 1011170
21:00+26ese597587 0.3 1013255
25 april, sun
sun2500:00+26ese587364 0.1 1013368
03:00+25ese5972100 0.1 1012400
06:00+24ese5973100 0.0 1013410
09:00+27ese5764100 0.0 1015610
12:00+30ese4655100 0.0 10131254
15:00+31ese4555100 0.0 1011920
18:00+29ese2364100 0.1 101260
21:00+27ene577491 0.3 1014384
26 april, mon
mon2600:00+26ese467894 0.9 1013256
03:00+25ese477854 0.9 1012307
06:00+25ese468089 0.0 1013229
09:00+27ese5768100 0.0 1014542
12:00+30ese4658100 0.0 10121191
15:00+30e2461100 0.1 1010541
18:00+28n337194 0.5 1011174
21:00+27nne347471 1.6 1013184